GEFSMA_prec_meanprecacc_102.txt.gz
Total_Precipitation_Accumulation
1.30 1.32 1.22 1.19 1.19 1.34 1.51 1.65 1.74 2.03 2.17 1.89 1.57 1.45 1.40 1.46 1.33 1.40 1.35 1.28 1.18 1.23 1.47 1.62 1.50 1.35 1.15 0.98 0.88 0.79 0.72 0.64 0.60 0.54 0.54 0.59 0.60 0.60 0.55 0.49 0.44 0.38 0.33
1.47 1.55 1.47 1.44 1.33 1.36 1.52 1.72 1.89 2.28 2.29 2.15 1.74 1.59 1.54 1.49 1.37 1.31 1.37 1.53 1.36 1.20 1.21 1.35 1.49 1.44 1.33 1.16 0.97 0.81 0.71 0.67 0.59 0.47 0.41 0.45 0.49 0.50 0.53 0.55 0.49 0.41 0.34
1.49 1.52 1.38 1.33 1.38 1.53 1.68 1.76 1.97 2.26 1.96 1.93 1.69 1.63 1.48 1.30 1.17 1.13 1.28 1.42 1.29 1.20 1.23 1.26 1.31 1.33 1.35 1.34 1.22 1.04 0.81 0.68 0.59 0.49 0.42 0.41 0.43 0.43 0.43 0.47 0.49 0.43 0.35
1.44 1.56 1.40 1.31 1.66 1.79 1.85 2.00 2.15 2.15 2.04 1.98 1.77 1.56 1.40 1.30 1.06 0.98 0.98 1.03 1.13 0.99 1.12 1.23 1.20 1.17 1.27 1.40 1.47 1.45 1.18 0.90 0.71 0.61 0.50 0.47 0.50 0.47 0.39 0.38 0.42 0.37 0.28
1.51 1.72 1.64 1.71 1.99 2.06 2.03 1.97 2.22 2.21 2.06 2.02 1.85 1.56 1.26 1.13 0.97 0.85 0.77 0.71 0.79 0.85 0.88 0.95 1.03 1.07 1.26 1.52 1.62 1.62 1.49 1.21 0.90 0.74 0.67 0.63 0.65 0.56 0.39 0.33 0.36 0.37 0.29
1.67 1.92 1.77 1.78 1.97 2.06 2.00 1.96 1.93 2.01 1.84 1.84 1.76 1.46 1.13 0.87 0.81 0.69 0.58 0.55 0.56 0.57 0.65 0.77 0.92 0.82 1.01 1.32 1.44 1.59 1.70 1.52 1.17 0.94 0.87 0.85 0.85 0.73 0.45 0.34 0.34 0.34 0.34
1.57 1.82 1.72 1.82 1.88 1.83 1.80 1.87 1.87 1.73 1.47 1.70 1.73 1.32 0.91 0.73 0.69 0.50 0.49 0.48 0.45 0.47 0.57 0.72 0.85 0.85 0.78 0.86 1.09 1.28 1.54 1.59 1.37 1.13 1.04 0.98 1.01 0.97 0.63 0.46 0.43 0.36 0.40
1.62 1.70 1.73 1.73 1.76 1.75 1.64 1.61 1.70 1.55 1.31 1.49 1.57 1.48 0.95 0.73 0.61 0.47 0.53 0.58 0.58 0.62 0.63 0.67 0.78 0.90 0.91 1.02 0.97 0.87 1.07 1.40 1.57 1.51 1.31 1.07 0.97 0.93 0.78 0.71 0.64 0.55 0.56
1.78 1.77 1.71 1.60 1.47 1.42 1.34 1.37 1.47 1.47 1.32 1.33 1.51 1.67 1.29 0.91 0.81 0.64 0.63 0.64 0.73 0.79 0.74 0.75 0.78 0.88 0.97 1.15 1.22 1.09 0.90 1.06 1.40 1.71 1.66 1.30 0.97 0.84 0.84 0.83 0.84 0.76 0.74
1.57 1.41 1.28 1.26 1.22 1.21 1.11 1.07 1.17 1.22 1.15 1.10 1.24 1.39 1.47 1.42 1.29 0.84 0.61 0.58 0.69 0.78 0.84 0.78 0.71 0.77 0.93 1.10 1.26 1.30 1.01 0.88 1.01 1.43 1.66 1.51 1.18 0.91 0.82 0.86 1.06 1.03 0.82
1.20 1.03 0.94 0.94 0.93 0.93 0.88 0.85 0.87 0.89 0.93 0.94 1.07 1.24 1.34 1.39 1.38 1.25 0.87 0.81 0.83 0.77 0.80 0.79 0.81 0.81 0.85 1.03 1.25 1.20 1.17 1.06 0.99 1.01 1.18 1.33 1.35 1.15 1.03 1.18 1.47 1.58 1.35
0.80 0.68 0.65 0.68 0.73 0.79 0.77 0.75 0.77 0.77 0.83 0.94 0.98 1.09 1.22 1.21 1.22 1.29 1.08 0.97 0.92 0.82 0.82 0.86 0.86 0.91 0.91 1.00 1.03 1.20 1.18 0.96 0.86 0.84 0.87 0.97 1.11 1.14 1.13 1.29 1.63 1.93 1.98
0.63 0.56 0.54 0.57 0.64 0.70 0.68 0.64 0.65 0.74 0.87 0.96 0.94 1.01 1.14 1.17 1.20 1.30 1.25 1.14 1.06 1.02 1.05 1.04 0.88 0.79 0.71 0.81 0.89 0.94 0.86 0.73 0.66 0.63 0.64 0.68 0.76 0.91 1.06 1.22 1.48 1.75 1.94
0.59 0.57 0.52 0.53 0.55 0.59 0.59 0.62 0.62 0.69 0.82 0.89 0.86 1.00 1.10 1.17 1.30 1.42 1.44 1.41 1.26 1.15 1.13 1.09 0.94 0.81 0.77 0.80 0.77 0.75 0.69 0.61 0.50 0.47 0.48 0.48 0.52 0.62 0.80 0.95 1.12 1.30 1.43
0.50 0.57 0.56 0.57 0.59 0.63 0.66 0.72 0.77 0.85 0.99 1.06 1.11 1.22 1.25 1.21 1.25 1.34 1.40 1.44 1.47 1.30 1.14 1.08 0.99 0.86 0.86 0.90 0.82 0.74 0.78 0.62 0.45 0.39 0.38 0.37 0.41 0.49 0.52 0.56 0.68 0.82 0.97
0.41 0.49 0.57 0.58 0.60 0.61 0.65 0.76 0.94 1.10 1.20 1.24 1.28 1.35 1.40 1.35 1.35 1.42 1.41 1.47 1.55 1.46 1.24 1.06 1.00 0.92 0.92 0.83 0.82 0.77 0.72 0.62 0.50 0.42 0.36 0.33 0.34 0.37 0.36 0.36 0.42 0.51 0.63
0.37 0.40 0.47 0.51 0.53 0.57 0.61 0.70 0.83 1.02 1.13 1.16 1.19 1.25 1.26 1.25 1.24 1.23 1.30 1.42 1.54 1.53 1.31 1.11 1.15 1.17 1.13 1.01 0.95 0.87 0.75 0.66 0.54 0.45 0.38 0.34 0.30 0.30 0.31 0.32 0.33 0.35 0.42
0.35 0.37 0.37 0.40 0.41 0.46 0.52 0.63 0.75 0.86 0.95 0.98 0.98 0.98 0.96 0.94 0.97 0.98 1.05 1.14 1.23 1.40 1.37 1.25 1.32 1.37 1.35 1.25 1.19 1.11 0.92 0.72 0.60 0.53 0.44 0.40 0.35 0.32 0.30 0.30 0.33 0.36 0.40
0.28 0.29 0.31 0.35 0.42 0.53 0.63 0.69 0.72 0.76 0.78 0.81 0.88 0.92 0.86 0.83 0.84 0.86 0.89 0.88 0.93 1.11 1.23 1.26 1.31 1.42 1.43 1.42 1.29 1.14 1.08 0.95 0.74 0.63 0.54 0.47 0.42 0.38 0.34 0.32 0.33 0.38 0.42
0.22 0.26 0.31 0.37 0.46 0.53 0.62 0.67 0.68 0.67 0.63 0.59 0.63 0.69 0.71 0.69 0.69 0.74 0.78 0.79 0.82 0.95 1.10 1.20 1.29 1.46 1.49 1.43 1.38 1.23 1.21 1.11 0.99 0.83 0.72 0.58 0.55 0.50 0.44 0.39 0.34 0.35 0.43
0.22 0.26 0.32 0.39 0.43 0.44 0.46 0.43 0.42 0.42 0.40 0.38 0.37 0.40 0.47 0.52 0.55 0.57 0.60 0.73 0.80 0.86 0.94 1.02 1.09 1.29 1.52 1.56 1.37 1.27 1.33 1.33 1.20 1.03 0.91 0.72 0.61 0.53 0.48 0.44 0.40 0.36 0.38
0.22 0.28 0.33 0.38 0.39 0.34 0.37 0.28 0.20 0.20 0.25 0.29 0.33 0.35 0.36 0.39 0.43 0.44 0.45 0.52 0.66 0.75 0.80 0.87 0.95 1.11 1.33 1.49 1.53 1.50 1.44 1.35 1.33 1.22 1.10 1.03 0.87 0.75 0.64 0.53 0.42 0.38 0.36
0.24 0.27 0.28 0.28 0.30 0.34 0.31 0.24 0.15 0.15 0.19 0.22 0.27 0.31 0.28 0.28 0.33 0.35 0.36 0.36 0.39 0.47 0.58 0.72 0.81 0.88 1.03 1.23 1.40 1.40 1.45 1.48 1.50 1.50 1.46 1.46 1.24 1.04 0.87 0.71 0.53 0.39 0.35
0.30 0.30 0.28 0.27 0.32 0.33 0.27 0.22 0.17 0.16 0.21 0.24 0.27 0.29 0.29 0.26 0.26 0.31 0.36 0.36 0.33 0.32 0.35 0.45 0.57 0.74 0.93 1.13 1.37 1.38 1.38 1.47 1.58 1.64 1.62 1.66 1.52 1.34 1.13 0.95 0.74 0.53 0.41
0.37 0.34 0.32 0.34 0.37 0.39 0.31 0.22 0.18 0.20 0.27 0.29 0.30 0.29 0.28 0.27 0.24 0.20 0.28 0.35 0.37 0.36 0.33 0.34 0.41 0.61 0.85 0.98 1.20 1.33 1.30 1.28 1.24 1.22 1.29 1.45 1.53 1.49 1.38 1.16 0.93 0.70 0.51
0.44 0.38 0.35 0.38 0.42 0.48 0.43 0.28 0.23 0.26 0.34 0.37 0.42 0.37 0.29 0.24 0.23 0.20 0.25 0.31 0.34 0.35 0.38 0.37 0.37 0.45 0.59 0.77 0.91 1.06 1.15 1.15 1.05 0.98 0.84 0.88 1.10 1.29 1.46 1.38 1.14 0.92 0.74

GEFSMA_prec_meanprecacc_108.txt.gz
Total_Precipitation_Accumulation
1.38 1.39 1.29 1.26 1.28 1.43 1.58 1.71 1.79 2.09 2.22 1.93 1.60 1.47 1.43 1.48 1.36 1.43 1.37 1.32 1.24 1.31 1.57 1.75 1.62 1.45 1.22 1.05 0.93 0.82 0.73 0.65 0.61 0.54 0.55 0.60 0.61 0.60 0.55 0.49 0.44 0.38 0.33
1.54 1.62 1.54 1.50 1.40 1.42 1.57 1.76 1.93 2.33 2.34 2.19 1.77 1.61 1.56 1.51 1.39 1.33 1.39 1.56 1.41 1.27 1.30 1.46 1.62 1.58 1.47 1.27 1.05 0.86 0.73 0.70 0.61 0.48 0.42 0.46 0.49 0.51 0.54 0.55 0.49 0.41 0.34
1.56 1.57 1.42 1.36 1.42 1.57 1.72 1.78 1.99 2.28 1.98 1.95 1.71 1.65 1.51 1.32 1.18 1.15 1.31 1.44 1.33 1.27 1.32 1.37 1.43 1.46 1.49 1.49 1.34 1.13 0.87 0.73 0.62 0.51 0.43 0.42 0.43 0.43 0.43 0.48 0.49 0.43 0.35
1.48 1.59 1.43 1.34 1.68 1.81 1.87 2.01 2.16 2.16 2.05 1.99 1.79 1.57 1.41 1.32 1.07 1.00 1.00 1.05 1.15 1.03 1.18 1.33 1.33 1.32 1.42 1.57 1.66 1.61 1.29 0.97 0.76 0.64 0.52 0.49 0.51 0.47 0.39 0.38 0.42 0.37 0.28
1.54 1.75 1.68 1.75 2.02 2.08 2.05 1.99 2.23 2.22 2.07 2.03 1.86 1.57 1.27 1.14 0.98 0.86 0.78 0.72 0.80 0.87 0.91 1.00 1.13 1.21 1.44 1.75 1.86 1.85 1.69 1.35 0.99 0.80 0.71 0.65 0.66 0.57 0.40 0.33 0.37 0.37 0.29
1.69 1.94 1.80 1.81 2.00 2.08 2.02 1.98 1.95 2.02 1.85 1.85 1.77 1.47 1.14 0.87 0.81 0.70 0.59 0.57 0.58 0.59 0.68 0.81 0.97 0.89 1.14 1.51 1.68 1.85 1.96 1.75 1.35 1.08 0.96 0.89 0.88 0.75 0.46 0.34 0.34 0.35 0.34
1.58 1.84 1.75 1.84 1.89 1.84 1.81 1.88 1.88 1.74 1.48 1.71 1.74 1.32 0.92 0.73 0.69 0.51 0.49 0.48 0.46 0.48 0.59 0.74 0.89 0.88 0.83 0.95 1.21 1.45 1.76 1.82 1.59 1.32 1.19 1.09 1.09 1.02 0.67 0.48 0.43 0.37 0.40
1.63 1.71 1.75 1.74 1.77 1.75 1.64 1.61 1.70 1.55 1.32 1.50 1.58 1.48 0.96 0.73 0.61 0.47 0.53 0.58 0.59 0.63 0.64 0.68 0.80 0.92 0.93 1.06 1.01 0.98 1.24 1.61 1.81 1.74 1.51 1.22 1.09 1.03 0.86 0.76 0.66 0.57 0.56
1.80 1.79 1.72 1.60 1.47 1.43 1.34 1.37 1.48 1.47 1.32 1.33 1.52 1.68 1.30 0.91 0.81 0.64 0.63 0.65 0.73 0.79 0.74 0.76 0.78 0.89 0.98 1.17 1.26 1.16 1.01 1.19 1.59 1.95 1.91 1.51 1.14 0.98 0.95 0.92 0.89 0.79 0.75
1.57 1.42 1.29 1.26 1.22 1.21 1.12 1.07 1.18 1.22 1.15 1.10 1.24 1.40 1.47 1.42 1.29 0.84 0.61 0.58 0.69 0.78 0.84 0.79 0.71 0.78 0.95 1.12 1.28 1.33 1.06 0.95 1.11 1.59 1.87 1.73 1.40 1.09 0.96 0.97 1.16 1.09 0.86
1.20 1.03 0.94 0.94 0.93 0.93 0.88 0.85 0.87 0.89 0.94 0.94 1.08 1.24 1.34 1.39 1.39 1.25 0.87 0.81 0.83 0.77 0.80 0.79 0.81 0.81 0.86 1.05 1.27 1.22 1.20 1.10 1.04 1.09 1.30 1.49 1.53 1.36 1.22 1.34 1.60 1.67 1.42
0.80 0.68 0.65 0.68 0.73 0.79 0.77 0.75 0.77 0.77 0.83 0.94 0.98 1.09 1.22 1.21 1.22 1.29 1.08 0.97 0.92 0.82 0.82 0.86 0.86 0.92 0.91 1.00 1.04 1.22 1.20 0.98 0.90 0.88 0.94 1.07 1.24 1.30 1.32 1.48 1.82 2.07 2.09
0.63 0.56 0.54 0.57 0.64 0.70 0.68 0.64 0.65 0.74 0.87 0.96 0.94 1.01 1.14 1.17 1.20 1.30 1.25 1.14 1.06 1.02 1.05 1.04 0.88 0.79 0.71 0.81 0.89 0.95 0.87 0.75 0.69 0.67 0.68 0.74 0.84 1.01 1.20 1.39 1.67 1.95 2.12
0.59 0.57 0.52 0.53 0.55 0.59 0.59 0.62 0.62 0.69 0.82 0.89 0.86 1.00 1.10 1.17 1.30 1.42 1.44 1.41 1.26 1.15 1.13 1.09 0.94 0.81 0.77 0.80 0.77 0.75 0.69 0.63 0.51 0.49 0.51 0.51 0.56 0.68 0.88 1.06 1.26 1.47 1.62
0.50 0.57 0.56 0.57 0.59 0.63 0.66 0.72 0.77 0.85 0.99 1.06 1.11 1.22 1.25 1.21 1.25 1.34 1.40 1.44 1.47 1.31 1.14 1.08 0.99 0.86 0.86 0.90 0.82 0.74 0.78 0.63 0.46 0.40 0.39 0.39 0.44 0.54 0.59 0.63 0.76 0.93 1.09
0.41 0.49 0.57 0.58 0.60 0.61 0.65 0.76 0.94 1.10 1.20 1.24 1.28 1.35 1.40 1.35 1.35 1.42 1.41 1.47 1.55 1.46 1.24 1.06 1.00 0.92 0.92 0.83 0.82 0.77 0.72 0.62 0.50 0.43 0.37 0.34 0.35 0.39 0.39 0.41 0.48 0.57 0.70
0.37 0.40 0.47 0.51 0.53 0.57 0.61 0.70 0.83 1.02 1.13 1.16 1.19 1.25 1.26 1.25 1.24 1.23 1.30 1.42 1.54 1.53 1.31 1.11 1.15 1.17 1.13 1.01 0.95 0.88 0.75 0.66 0.54 0.46 0.39 0.36 0.33 0.32 0.33 0.35 0.38 0.42 0.49
0.35 0.37 0.37 0.40 0.41 0.46 0.52 0.63 0.75 0.86 0.95 0.98 0.98 0.98 0.96 0.94 0.97 0.98 1.05 1.14 1.23 1.40 1.37 1.25 1.32 1.37 1.35 1.25 1.19 1.11 0.92 0.72 0.60 0.54 0.45 0.42 0.38 0.34 0.32 0.33 0.37 0.43 0.47
0.28 0.29 0.31 0.35 0.42 0.53 0.63 0.69 0.72 0.76 0.78 0.81 0.88 0.92 0.86 0.83 0.84 0.86 0.89 0.88 0.93 1.11 1.23 1.26 1.31 1.42 1.43 1.42 1.29 1.14 1.08 0.95 0.74 0.64 0.56 0.50 0.45 0.41 0.37 0.35 0.36 0.42 0.47
0.22 0.26 0.31 0.37 0.46 0.53 0.62 0.67 0.68 0.67 0.63 0.59 0.63 0.69 0.71 0.69 0.69 0.74 0.78 0.79 0.82 0.95 1.10 1.20 1.29 1.46 1.49 1.43 1.38 1.23 1.21 1.11 0.99 0.84 0.72 0.60 0.58 0.54 0.48 0.42 0.37 0.38 0.46
0.22 0.27 0.32 0.39 0.43 0.44 0.46 0.43 0.42 0.42 0.40 0.38 0.37 0.40 0.47 0.52 0.55 0.57 0.60 0.73 0.80 0.86 0.94 1.02 1.09 1.29 1.52 1.56 1.37 1.27 1.33 1.33 1.20 1.03 0.91 0.73 0.62 0.56 0.52 0.47 0.44 0.39 0.41
0.23 0.28 0.33 0.38 0.39 0.34 0.37 0.28 0.20 0.20 0.25 0.29 0.33 0.35 0.36 0.39 0.43 0.44 0.45 0.52 0.66 0.75 0.80 0.87 0.95 1.11 1.33 1.49 1.53 1.50 1.44 1.35 1.33 1.22 1.10 1.03 0.87 0.76 0.67 0.57 0.46 0.42 0.39
0.24 0.27 0.28 0.28 0.30 0.34 0.31 0.24 0.15 0.15 0.19 0.22 0.27 0.31 0.28 0.28 0.33 0.35 0.36 0.36 0.39 0.47 0.59 0.72 0.81 0.88 1.03 1.23 1.40 1.40 1.46 1.48 1.50 1.51 1.46 1.46 1.24 1.04 0.88 0.74 0.58 0.45 0.40
0.31 0.30 0.28 0.27 0.32 0.33 0.27 0.22 0.17 0.16 0.21 0.24 0.27 0.29 0.29 0.26 0.26 0.31 0.36 0.36 0.33 0.32 0.35 0.45 0.57 0.75 0.93 1.13 1.37 1.38 1.38 1.47 1.58 1.65 1.63 1.67 1.52 1.34 1.15 0.98 0.79 0.59 0.47
0.37 0.34 0.32 0.34 0.37 0.39 0.31 0.22 0.18 0.20 0.27 0.29 0.30 0.29 0.28 0.27 0.24 0.20 0.28 0.35 0.37 0.36 0.33 0.34 0.41 0.61 0.85 0.98 1.20 1.33 1.30 1.29 1.24 1.23 1.30 1.45 1.53 1.49 1.39 1.18 0.96 0.77 0.60
0.44 0.38 0.35 0.38 0.42 0.48 0.43 0.28 0.23 0.26 0.34 0.37 0.42 0.37 0.29 0.24 0.23 0.20 0.25 0.31 0.34 0.35 0.38 0.37 0.37 0.45 0.59 0.78 0.92 1.06 1.15 1.15 1.06 0.98 0.84 0.89 1.11 1.29 1.47 1.39 1.17 0.97 0.81

GEFSMA_prec_meanprecacc_114.txt.gz
Total_Precipitation_Accumulation
1.50 1.51 1.41 1.38 1.39 1.55 1.71 1.82 1.89 2.18 2.29 1.98 1.63 1.50 1.46 1.51 1.39 1.46 1.40 1.36 1.28 1.36 1.66 1.89 1.77 1.58 1.33 1.13 1.00 0.88 0.76 0.67 0.63 0.56 0.57 0.62 0.63 0.61 0.56 0.49 0.44 0.39 0.34
1.65 1.74 1.64 1.59 1.50 1.53 1.67 1.86 2.04 2.43 2.42 2.26 1.82 1.65 1.60 1.54 1.42 1.37 1.43 1.59 1.44 1.31 1.36 1.57 1.76 1.75 1.62 1.40 1.16 0.96 0.80 0.75 0.66 0.52 0.44 0.48 0.52 0.53 0.55 0.55 0.50 0.41 0.34
1.65 1.65 1.49 1.43 1.50 1.65 1.79 1.84 2.04 2.33 2.03 2.00 1.75 1.68 1.53 1.34 1.21 1.19 1.34 1.48 1.36 1.30 1.36 1.45 1.55 1.60 1.65 1.65 1.49 1.27 1.00 0.84 0.70 0.57 0.47 0.45 0.46 0.45 0.45 0.49 0.50 0.44 0.35
1.54 1.64 1.48 1.39 1.72 1.85 1.91 2.04 2.18 2.19 2.08 2.02 1.82 1.59 1.43 1.33 1.09 1.02 1.03 1.08 1.18 1.04 1.21 1.38 1.41 1.44 1.57 1.75 1.84 1.79 1.46 1.11 0.88 0.74 0.59 0.53 0.54 0.50 0.41 0.40 0.43 0.38 0.29
1.57 1.79 1.71 1.78 2.04 2.11 2.07 2.01 2.25 2.23 2.09 2.04 1.87 1.58 1.28 1.15 0.99 0.88 0.80 0.74 0.83 0.89 0.93 1.05 1.18 1.26 1.55 1.91 2.05 2.07 1.91 1.55 1.16 0.95 0.84 0.73 0.72 0.60 0.42 0.34 0.37 0.38 0.29
1.70 1.95 1.81 1.83 2.02 2.10 2.04 2.00 1.97 2.03 1.85 1.85 1.77 1.47 1.14 0.87 0.82 0.70 0.59 0.58 0.60 0.61 0.70 0.85 1.04 0.93 1.19 1.62 1.85 2.06 2.18 1.97 1.55 1.25 1.12 1.03 0.98 0.81 0.49 0.36 0.35 0.35 0.34
1.59 1.85 1.76 1.86 1.91 1.86 1.83 1.90 1.89 1.74 1.48 1.71 1.74 1.32 0.92 0.73 0.69 0.51 0.49 0.49 0.47 0.50 0.62 0.79 0.95 0.94 0.88 1.01 1.29 1.55 1.90 2.01 1.77 1.49 1.35 1.25 1.24 1.15 0.75 0.53 0.46 0.38 0.41
1.64 1.72 1.75 1.75 1.78 1.77 1.66 1.64 1.72 1.56 1.32 1.50 1.58 1.49 0.96 0.73 0.61 0.47 0.53 0.59 0.60 0.65 0.67 0.72 0.85 0.97 0.98 1.13 1.07 1.03 1.33 1.74 1.98 1.92 1.67 1.37 1.24 1.18 0.99 0.84 0.71 0.60 0.58
1.81 1.80 1.73 1.61 1.49 1.45 1.37 1.39 1.49 1.47 1.32 1.33 1.52 1.68 1.30 0.92 0.81 0.64 0.63 0.65 0.74 0.81 0.77 0.79 0.82 0.94 1.03 1.23 1.33 1.21 1.06 1.27 1.71 2.11 2.09 1.68 1.29 1.13 1.09 1.04 0.99 0.85 0.79
1.59 1.43 1.31 1.28 1.24 1.23 1.13 1.08 1.19 1.23 1.16 1.11 1.24 1.40 1.47 1.42 1.30 0.84 0.61 0.58 0.69 0.79 0.86 0.81 0.73 0.81 0.98 1.16 1.33 1.37 1.09 0.98 1.18 1.72 2.04 1.92 1.57 1.25 1.11 1.11 1.28 1.20 0.93
1.21 1.04 0.95 0.95 0.94 0.94 0.89 0.86 0.88 0.90 0.94 0.95 1.08 1.24 1.34 1.39 1.39 1.25 0.87 0.82 0.83 0.77 0.80 0.80 0.82 0.83 0.87 1.07 1.29 1.24 1.22 1.12 1.06 1.15 1.42 1.64 1.69 1.52 1.39 1.50 1.76 1.81 1.52
0.80 0.69 0.65 0.68 0.74 0.79 0.77 0.76 0.78 0.77 0.84 0.95 0.98 1.09 1.22 1.22 1.22 1.30 1.09 0.97 0.92 0.82 0.82 0.86 0.86 0.92 0.91 1.01 1.05 1.23 1.22 1.01 0.93 0.91 0.99 1.16 1.36 1.42 1.44 1.62 1.98 2.24 2.25
0.63 0.56 0.54 0.57 0.64 0.71 0.68 0.64 0.66 0.75 0.87 0.96 0.94 1.01 1.14 1.17 1.20 1.30 1.26 1.14 1.07 1.02 1.05 1.04 0.88 0.79 0.71 0.81 0.90 0.95 0.88 0.77 0.71 0.70 0.72 0.79 0.91 1.10 1.29 1.49 1.79 2.09 2.27
0.59 0.57 0.52 0.53 0.55 0.60 0.59 0.62 0.62 0.69 0.82 0.90 0.87 1.00 1.11 1.17 1.30 1.42 1.44 1.41 1.27 1.16 1.13 1.09 0.94 0.81 0.77 0.80 0.77 0.75 0.70 0.63 0.53 0.51 0.52 0.54 0.60 0.72 0.94 1.12 1.34 1.58 1.75
0.51 0.57 0.57 0.57 0.59 0.63 0.66 0.72 0.77 0.85 0.99 1.06 1.11 1.22 1.25 1.21 1.26 1.34 1.40 1.45 1.48 1.31 1.15 1.08 0.99 0.86 0.86 0.90 0.82 0.74 0.79 0.63 0.46 0.41 0.40 0.40 0.46 0.56 0.61 0.67 0.81 1.00 1.18
0.41 0.49 0.57 0.58 0.60 0.61 0.65 0.76 0.94 1.10 1.20 1.25 1.28 1.35 1.40 1.35 1.35 1.42 1.41 1.47 1.56 1.47 1.24 1.06 1.00 0.92 0.92 0.83 0.82 0.78 0.73 0.62 0.50 0.43 0.37 0.35 0.36 0.40 0.40 0.42 0.51 0.61 0.76
0.37 0.40 0.47 0.51 0.53 0.57 0.61 0.70 0.83 1.02 1.13 1.16 1.19 1.25 1.27 1.26 1.24 1.23 1.30 1.42 1.54 1.53 1.31 1.12 1.15 1.17 1.13 1.02 0.95 0.88 0.75 0.67 0.54 0.46 0.40 0.37 0.33 0.33 0.34 0.36 0.39 0.44 0.52
0.35 0.37 0.37 0.40 0.42 0.46 0.52 0.63 0.75 0.86 0.95 0.98 0.98 0.99 0.96 0.95 0.98 0.98 1.05 1.14 1.23 1.41 1.38 1.25 1.32 1.38 1.36 1.26 1.20 1.12 0.92 0.72 0.60 0.54 0.45 0.42 0.39 0.35 0.33 0.35 0.37 0.43 0.49
0.28 0.29 0.31 0.35 0.42 0.53 0.63 0.69 0.72 0.76 0.78 0.81 0.88 0.93 0.86 0.83 0.84 0.86 0.89 0.88 0.93 1.11 1.23 1.26 1.32 1.42 1.43 1.42 1.29 1.15 1.08 0.95 0.74 0.64 0.56 0.50 0.45 0.41 0.37 0.36 0.37 0.43 0.48
0.22 0.26 0.31 0.37 0.46 0.53 0.62 0.67 0.68 0.67 0.63 0.59 0.63 0.69 0.71 0.69 0.69 0.75 0.78 0.80 0.82 0.95 1.10 1.20 1.29 1.46 1.49 1.43 1.38 1.23 1.22 1.11 1.00 0.84 0.73 0.60 0.58 0.54 0.48 0.43 0.39 0.39 0.48
0.22 0.27 0.32 0.39 0.43 0.44 0.46 0.43 0.42 0.42 0.40 0.38 0.37 0.41 0.47 0.52 0.55 0.58 0.61 0.73 0.81 0.87 0.95 1.02 1.09 1.29 1.52 1.56 1.37 1.27 1.34 1.33 1.21 1.03 0.92 0.73 0.63 0.56 0.52 0.48 0.45 0.41 0.43
0.23 0.28 0.33 0.39 0.39 0.34 0.38 0.29 0.20 0.20 0.25 0.29 0.33 0.35 0.36 0.39 0.43 0.44 0.45 0.52 0.66 0.75 0.80 0.88 0.95 1.12 1.34 1.50 1.55 1.51 1.44 1.36 1.34 1.23 1.11 1.04 0.87 0.77 0.68 0.58 0.47 0.44 0.42
0.24 0.27 0.28 0.28 0.31 0.35 0.32 0.25 0.16 0.15 0.19 0.23 0.28 0.31 0.28 0.28 0.33 0.36 0.37 0.36 0.39 0.47 0.59 0.73 0.82 0.89 1.04 1.25 1.42 1.42 1.47 1.50 1.51 1.52 1.47 1.46 1.24 1.05 0.89 0.74 0.58 0.45 0.42
0.31 0.30 0.28 0.27 0.32 0.33 0.27 0.22 0.17 0.16 0.21 0.24 0.27 0.29 0.29 0.26 0.26 0.31 0.37 0.36 0.33 0.32 0.35 0.45 0.58 0.75 0.94 1.14 1.40 1.40 1.40 1.49 1.59 1.66 1.64 1.67 1.52 1.35 1.15 0.98 0.79 0.59 0.48
0.37 0.34 0.32 0.34 0.37 0.39 0.31 0.22 0.18 0.20 0.27 0.29 0.30 0.29 0.28 0.27 0.24 0.21 0.28 0.35 0.38 0.37 0.33 0.34 0.41 0.61 0.85 0.98 1.21 1.34 1.32 1.30 1.26 1.23 1.31 1.46 1.53 1.50 1.39 1.19 0.97 0.77 0.60
0.44 0.38 0.35 0.38 0.42 0.48 0.43 0.29 0.23 0.26 0.34 0.37 0.42 0.38 0.29 0.24 0.23 0.20 0.25 0.32 0.34 0.36 0.39 0.38 0.38 0.45 0.59 0.78 0.92 1.07 1.16 1.17 1.07 0.99 0.86 0.91 1.12 1.31 1.48 1.39 1.18 0.98 0.82

GEFSMA_prec_meanprecacc_120.txt.gz
Total_Precipitation_Accumulation
1.62 1.61 1.52 1.48 1.49 1.63 1.79 1.90 1.96 2.26 2.36 2.03 1.66 1.51 1.47 1.52 1.40 1.49 1.48 1.41 1.31 1.38 1.69 1.94 1.84 1.64 1.38 1.19 1.05 0.93 0.81 0.71 0.65 0.58 0.59 0.65 0.65 0.63 0.57 0.51 0.46 0.40 0.34
1.74 1.82 1.73 1.69 1.58 1.61 1.76 1.93 2.10 2.50 2.50 2.32 1.86 1.66 1.60 1.55 1.42 1.39 1.49 1.68 1.48 1.33 1.39 1.61 1.82 1.81 1.68 1.46 1.22 1.02 0.87 0.81 0.71 0.55 0.47 0.50 0.54 0.55 0.56 0.57 0.51 0.43 0.35
1.71 1.70 1.56 1.52 1.58 1.72 1.85 1.89 2.08 2.37 2.07 2.04 1.80 1.72 1.54 1.35 1.22 1.20 1.38 1.54 1.42 1.34 1.40 1.48 1.59 1.65 1.72 1.74 1.58 1.35 1.07 0.91 0.78 0.62 0.51 0.48 0.49 0.48 0.47 0.50 0.51 0.45 0.36
1.59 1.69 1.53 1.45 1.77 1.90 1.96 2.09 2.22 2.22 2.11 2.06 1.86 1.62 1.45 1.35 1.10 1.03 1.05 1.12 1.22 1.08 1.28 1.44 1.45 1.48 1.62 1.82 1.94 1.90 1.57 1.23 0.99 0.83 0.66 0.58 0.58 0.53 0.43 0.42 0.45 0.39 0.30
1.63 1.85 1.77 1.82 2.08 2.14 2.13 2.05 2.28 2.26 2.12 2.07 1.89 1.60 1.29 1.16 1.01 0.89 0.82 0.77 0.86 0.92 0.99 1.12 1.23 1.30 1.60 1.99 2.16 2.20 2.08 1.73 1.31 1.08 0.95 0.83 0.79 0.65 0.45 0.37 0.39 0.39 0.30
1.76 2.01 1.85 1.86 2.04 2.13 2.09 2.03 1.99 2.05 1.87 1.86 1.77 1.47 1.15 0.88 0.82 0.71 0.60 0.59 0.62 0.62 0.73 0.91 1.12 0.99 1.25 1.70 1.95 2.18 2.33 2.15 1.71 1.41 1.27 1.17 1.10 0.91 0.56 0.40 0.37 0.37 0.35
1.63 1.88 1.78 1.88 1.92 1.88 1.86 1.91 1.90 1.76 1.49 1.71 1.74 1.32 0.92 0.73 0.69 0.51 0.49 0.50 0.48 0.51 0.65 0.84 1.02 1.02 0.96 1.08 1.36 1.64 2.01 2.16 1.93 1.64 1.49 1.38 1.39 1.27 0.85 0.59 0.50 0.41 0.43
1.67 1.74 1.77 1.76 1.79 1.79 1.69 1.66 1.74 1.57 1.32 1.50 1.58 1.49 0.96 0.74 0.61 0.47 0.53 0.59 0.61 0.67 0.69 0.75 0.90 1.02 1.03 1.22 1.14 1.09 1.42 1.87 2.14 2.07 1.80 1.48 1.35 1.29 1.09 0.94 0.79 0.64 0.62
1.83 1.82 1.75 1.63 1.51 1.46 1.39 1.41 1.50 1.48 1.33 1.33 1.52 1.68 1.30 0.92 0.82 0.64 0.64 0.65 0.74 0.81 0.78 0.81 0.85 0.98 1.07 1.28 1.41 1.28 1.13 1.36 1.85 2.29 2.24 1.81 1.41 1.23 1.19 1.14 1.09 0.93 0.84
1.61 1.45 1.32 1.30 1.27 1.25 1.15 1.10 1.20 1.24 1.17 1.11 1.24 1.40 1.47 1.43 1.30 0.85 0.61 0.58 0.70 0.80 0.87 0.81 0.75 0.84 1.00 1.19 1.39 1.44 1.14 1.02 1.25 1.86 2.19 2.06 1.71 1.37 1.21 1.21 1.40 1.32 1.03
1.22 1.05 0.98 0.98 0.97 0.96 0.91 0.87 0.89 0.91 0.95 0.95 1.08 1.24 1.34 1.40 1.39 1.25 0.88 0.82 0.83 0.77 0.80 0.81 0.83 0.84 0.88 1.08 1.32 1.28 1.26 1.15 1.09 1.20 1.50 1.73 1.80 1.64 1.50 1.61 1.88 1.94 1.65
0.82 0.70 0.66 0.70 0.75 0.81 0.80 0.77 0.79 0.78 0.84 0.95 0.98 1.09 1.22 1.22 1.22 1.30 1.09 0.98 0.92 0.82 0.82 0.86 0.86 0.93 0.92 1.01 1.05 1.24 1.23 1.03 0.94 0.93 1.02 1.21 1.41 1.49 1.53 1.72 2.10 2.38 2.38
0.63 0.57 0.54 0.58 0.65 0.72 0.69 0.65 0.66 0.75 0.88 0.97 0.95 1.01 1.14 1.17 1.20 1.30 1.26 1.15 1.07 1.02 1.05 1.04 0.88 0.79 0.71 0.82 0.91 0.96 0.88 0.77 0.71 0.70 0.73 0.81 0.94 1.13 1.34 1.56 1.88 2.21 2.42
0.59 0.58 0.53 0.54 0.55 0.60 0.59 0.62 0.62 0.70 0.82 0.90 0.87 1.00 1.11 1.17 1.30 1.42 1.45 1.41 1.27 1.16 1.13 1.09 0.94 0.81 0.77 0.80 0.78 0.76 0.70 0.64 0.53 0.51 0.53 0.55 0.62 0.76 0.97 1.16 1.40 1.67 1.88
0.51 0.57 0.57 0.58 0.59 0.63 0.66 0.73 0.77 0.85 1.00 1.06 1.11 1.22 1.25 1.21 1.26 1.34 1.40 1.45 1.48 1.31 1.15 1.09 0.99 0.86 0.86 0.90 0.82 0.74 0.80 0.64 0.46 0.41 0.40 0.40 0.47 0.58 0.64 0.71 0.85 1.04 1.24
0.42 0.50 0.57 0.58 0.60 0.61 0.65 0.76 0.95 1.10 1.20 1.25 1.28 1.36 1.40 1.35 1.36 1.42 1.42 1.47 1.56 1.47 1.24 1.06 1.00 0.92 0.92 0.83 0.82 0.78 0.73 0.62 0.50 0.43 0.37 0.35 0.36 0.40 0.41 0.44 0.53 0.64 0.79
0.37 0.40 0.47 0.51 0.54 0.57 0.61 0.70 0.83 1.02 1.13 1.16 1.19 1.25 1.27 1.26 1.25 1.23 1.30 1.42 1.54 1.54 1.32 1.12 1.15 1.17 1.13 1.02 0.95 0.88 0.75 0.67 0.55 0.47 0.40 0.37 0.33 0.33 0.34 0.36 0.41 0.46 0.54
0.36 0.37 0.37 0.41 0.42 0.46 0.53 0.63 0.75 0.86 0.95 0.98 0.99 0.99 0.96 0.95 0.98 0.98 1.06 1.14 1.24 1.41 1.38 1.26 1.32 1.38 1.36 1.26 1.20 1.12 0.92 0.72 0.60 0.54 0.45 0.42 0.39 0.36 0.33 0.35 0.38 0.44 0.50
0.28 0.29 0.31 0.36 0.43 0.54 0.63 0.69 0.73 0.76 0.78 0.82 0.88 0.93 0.87 0.83 0.84 0.87 0.90 0.89 0.94 1.11 1.23 1.26 1.32 1.42 1.43 1.42 1.29 1.15 1.08 0.95 0.74 0.64 0.56 0.50 0.45 0.41 0.38 0.36 0.38 0.43 0.48
0.22 0.26 0.32 0.38 0.46 0.54 0.62 0.68 0.69 0.68 0.64 0.60 0.64 0.69 0.72 0.70 0.70 0.75 0.79 0.80 0.83 0.96 1.11 1.20 1.29 1.46 1.49 1.43 1.38 1.23 1.22 1.12 1.00 0.84 0.73 0.60 0.58 0.54 0.48 0.43 0.39 0.39 0.48
0.23 0.27 0.32 0.39 0.43 0.45 0.46 0.43 0.43 0.42 0.41 0.38 0.38 0.41 0.47 0.53 0.56 0.58 0.61 0.73 0.81 0.87 0.95 1.02 1.09 1.29 1.52 1.57 1.38 1.28 1.34 1.34 1.21 1.03 0.92 0.74 0.63 0.57 0.53 0.48 0.45 0.41 0.43
0.23 0.28 0.33 0.39 0.39 0.34 0.38 0.29 0.21 0.21 0.26 0.29 0.33 0.36 0.37 0.39 0.43 0.44 0.45 0.52 0.66 0.75 0.81 0.88 0.95 1.12 1.35 1.51 1.56 1.52 1.45 1.37 1.34 1.23 1.12 1.04 0.88 0.77 0.69 0.58 0.47 0.44 0.42
0.25 0.28 0.29 0.29 0.31 0.35 0.32 0.25 0.16 0.15 0.19 0.23 0.28 0.32 0.29 0.29 0.33 0.36 0.37 0.36 0.39 0.47 0.59 0.73 0.82 0.89 1.05 1.26 1.44 1.44 1.49 1.52 1.53 1.52 1.48 1.47 1.25 1.05 0.89 0.75 0.58 0.45 0.42
0.32 0.31 0.29 0.28 0.33 0.34 0.27 0.22 0.17 0.16 0.21 0.24 0.27 0.29 0.29 0.26 0.26 0.32 0.37 0.37 0.34 0.33 0.36 0.45 0.58 0.75 0.94 1.16 1.41 1.42 1.42 1.50 1.60 1.66 1.65 1.68 1.52 1.35 1.15 0.99 0.80 0.59 0.48
0.39 0.35 0.33 0.35 0.38 0.40 0.31 0.22 0.18 0.20 0.27 0.29 0.31 0.29 0.28 0.27 0.24 0.21 0.28 0.35 0.38 0.38 0.33 0.35 0.42 0.62 0.85 0.98 1.21 1.34 1.32 1.30 1.26 1.24 1.32 1.47 1.54 1.50 1.39 1.19 0.97 0.77 0.60
0.47 0.41 0.37 0.40 0.44 0.50 0.46 0.30 0.25 0.27 0.35 0.37 0.43 0.39 0.30 0.24 0.23 0.21 0.25 0.32 0.35 0.37 0.40 0.39 0.39 0.46 0.59 0.78 0.92 1.07 1.16 1.17 1.07 0.99 0.87 0.93 1.13 1.32 1.48 1.39 1.19 0.99 0.83

GEFSMA_prec_meanprecacc_126.txt.gz
Total_Precipitation_Accumulation
1.66 1.64 1.56 1.51 1.51 1.65 1.80 1.91 1.97 2.28 2.39 2.06 1.71 1.55 1.51 1.56 1.46 1.55 1.54 1.47 1.37 1.45 1.76 2.00 1.88 1.68 1.41 1.20 1.07 0.94 0.82 0.73 0.67 0.58 0.59 0.66 0.66 0.63 0.57 0.52 0.46 0.40 0.35
1.77 1.84 1.75 1.70 1.61 1.62 1.77 1.93 2.11 2.51 2.51 2.33 1.88 1.69 1.63 1.57 1.44 1.41 1.51 1.71 1.53 1.39 1.45 1.68 1.89 1.88 1.75 1.52 1.25 1.06 0.91 0.85 0.75 0.58 0.48 0.52 0.56 0.56 0.56 0.57 0.52 0.43 0.36
1.73 1.72 1.58 1.53 1.58 1.73 1.86 1.90 2.09 2.37 2.08 2.05 1.81 1.74 1.57 1.37 1.23 1.22 1.39 1.55 1.44 1.39 1.45 1.54 1.67 1.74 1.82 1.82 1.66 1.44 1.15 0.99 0.85 0.66 0.54 0.50 0.50 0.49 0.47 0.51 0.52 0.45 0.36
1.60 1.71 1.55 1.46 1.78 1.91 1.98 2.11 2.23 2.22 2.11 2.06 1.87 1.64 1.47 1.37 1.12 1.04 1.06 1.13 1.23 1.10 1.32 1.49 1.51 1.55 1.71 1.91 2.06 2.03 1.69 1.35 1.10 0.89 0.70 0.61 0.62 0.56 0.45 0.43 0.46 0.40 0.30
1.65 1.87 1.79 1.84 2.09 2.15 2.13 2.06 2.29 2.27 2.12 2.07 1.89 1.61 1.30 1.17 1.02 0.90 0.83 0.78 0.87 0.93 1.01 1.16 1.28 1.36 1.66 2.09 2.29 2.35 2.24 1.87 1.42 1.17 1.04 0.90 0.86 0.70 0.49 0.39 0.41 0.40 0.31
1.79 2.04 1.88 1.87 2.05 2.14 2.10 2.05 2.00 2.06 1.87 1.86 1.78 1.48 1.15 0.88 0.82 0.72 0.61 0.60 0.63 0.63 0.75 0.93 1.14 1.03 1.31 1.78 2.05 2.30 2.46 2.28 1.81 1.51 1.38 1.27 1.19 0.98 0.62 0.45 0.42 0.40 0.37
1.66 1.92 1.80 1.89 1.93 1.88 1.87 1.93 1.92 1.77 1.50 1.72 1.75 1.33 0.93 0.74 0.70 0.52 0.50 0.50 0.48 0.52 0.66 0.86 1.03 1.04 0.99 1.12 1.41 1.71 2.11 2.27 2.04 1.74 1.60 1.50 1.51 1.37 0.93 0.66 0.57 0.46 0.47
1.71 1.77 1.79 1.77 1.80 1.79 1.69 1.68 1.75 1.58 1.33 1.51 1.58 1.49 0.97 0.74 0.61 0.47 0.53 0.59 0.61 0.67 0.70 0.77 0.91 1.02 1.03 1.23 1.16 1.12 1.48 1.96 2.25 2.18 1.91 1.58 1.45 1.38 1.18 1.02 0.86 0.70 0.67
1.86 1.84 1.76 1.63 1.51 1.46 1.40 1.43 1.52 1.49 1.33 1.33 1.52 1.68 1.30 0.93 0.82 0.65 0.64 0.65 0.74 0.81 0.78 0.81 0.86 0.98 1.08 1.29 1.41 1.29 1.16 1.39 1.92 2.40 2.37 1.91 1.48 1.30 1.26 1.22 1.17 1.01 0.91
1.64 1.47 1.33 1.31 1.27 1.25 1.16 1.10 1.21 1.25 1.17 1.12 1.24 1.40 1.47 1.43 1.30 0.85 0.61 0.58 0.70 0.80 0.87 0.81 0.75 0.84 1.01 1.19 1.40 1.46 1.15 1.05 1.28 1.92 2.30 2.17 1.80 1.44 1.28 1.28 1.47 1.41 1.11
1.24 1.07 0.99 0.98 0.98 0.97 0.92 0.88 0.90 0.91 0.95 0.95 1.08 1.25 1.34 1.40 1.39 1.25 0.88 0.82 0.83 0.77 0.80 0.81 0.83 0.84 0.88 1.08 1.32 1.29 1.27 1.16 1.11 1.23 1.55 1.78 1.85 1.69 1.57 1.69 1.96 2.03 1.74
0.83 0.70 0.67 0.70 0.75 0.81 0.80 0.78 0.80 0.79 0.84 0.95 0.98 1.09 1.22 1.22 1.22 1.30 1.09 0.98 0.93 0.82 0.82 0.86 0.86 0.93 0.92 1.01 1.05 1.24 1.23 1.03 0.95 0.95 1.05 1.25 1.45 1.53 1.57 1.78 2.17 2.47 2.48
0.64 0.58 0.55 0.58 0.65 0.72 0.69 0.66 0.67 0.75 0.88 0.97 0.95 1.01 1.14 1.17 1.20 1.30 1.26 1.15 1.07 1.02 1.05 1.04 0.88 0.79 0.72 0.82 0.91 0.96 0.88 0.77 0.72 0.70 0.73 0.82 0.95 1.16 1.37 1.60 1.93 2.27 2.50
0.60 0.58 0.53 0.54 0.55 0.60 0.59 0.63 0.63 0.70 0.82 0.90 0.87 1.01 1.11 1.17 1.30 1.42 1.45 1.41 1.27 1.16 1.13 1.09 0.94 0.81 0.77 0.80 0.78 0.76 0.70 0.64 0.53 0.51 0.53 0.55 0.63 0.76 0.98 1.17 1.42 1.69 1.92
0.51 0.57 0.57 0.58 0.60 0.64 0.66 0.73 0.77 0.86 1.00 1.06 1.11 1.22 1.25 1.21 1.26 1.34 1.40 1.45 1.48 1.31 1.15 1.09 0.99 0.86 0.86 0.90 0.82 0.74 0.80 0.64 0.46 0.41 0.40 0.40 0.47 0.58 0.64 0.71 0.86 1.05 1.26
0.42 0.51 0.58 0.58 0.60 0.61 0.65 0.76 0.95 1.10 1.20 1.25 1.28 1.36 1.40 1.35 1.36 1.42 1.42 1.47 1.56 1.47 1.24 1.06 1.00 0.92 0.92 0.83 0.82 0.78 0.73 0.62 0.50 0.43 0.37 0.35 0.36 0.40 0.41 0.44 0.53 0.64 0.80
0.38 0.43 0.48 0.52 0.54 0.57 0.61 0.70 0.83 1.02 1.13 1.16 1.19 1.25 1.27 1.26 1.25 1.23 1.30 1.42 1.54 1.54 1.32 1.12 1.15 1.17 1.13 1.02 0.95 0.88 0.75 0.67 0.55 0.47 0.40 0.37 0.33 0.33 0.34 0.36 0.41 0.46 0.55
0.38 0.38 0.38 0.41 0.43 0.46 0.53 0.64 0.76 0.87 0.95 0.98 0.99 0.99 0.97 0.95 0.98 0.99 1.06 1.14 1.24 1.41 1.38 1.26 1.32 1.38 1.36 1.26 1.20 1.12 0.92 0.72 0.60 0.54 0.45 0.42 0.39 0.36 0.33 0.35 0.38 0.44 0.50
0.29 0.30 0.32 0.37 0.44 0.55 0.64 0.70 0.74 0.77 0.78 0.82 0.89 0.93 0.87 0.84 0.85 0.88 0.90 0.89 0.94 1.12 1.23 1.26 1.32 1.42 1.43 1.42 1.29 1.15 1.08 0.95 0.74 0.64 0.56 0.50 0.45 0.41 0.38 0.36 0.38 0.43 0.48
0.24 0.28 0.33 0.39 0.47 0.55 0.63 0.69 0.69 0.68 0.65 0.61 0.65 0.70 0.73 0.71 0.71 0.76 0.79 0.81 0.83 0.96 1.11 1.20 1.29 1.46 1.49 1.43 1.38 1.23 1.22 1.12 1.00 0.84 0.73 0.60 0.58 0.54 0.48 0.43 0.39 0.39 0.48
0.25 0.29 0.34 0.40 0.44 0.45 0.47 0.44 0.44 0.43 0.41 0.38 0.38 0.41 0.48 0.53 0.56 0.58 0.61 0.73 0.81 0.87 0.95 1.02 1.09 1.29 1.52 1.57 1.38 1.28 1.34 1.34 1.21 1.03 0.92 0.74 0.63 0.57 0.53 0.48 0.45 0.41 0.43
0.26 0.30 0.34 0.39 0.40 0.35 0.38 0.30 0.21 0.21 0.26 0.29 0.33 0.36 0.37 0.39 0.43 0.44 0.45 0.53 0.66 0.76 0.81 0.88 0.96 1.12 1.35 1.51 1.56 1.52 1.45 1.37 1.35 1.23 1.12 1.04 0.88 0.77 0.69 0.58 0.47 0.44 0.42
0.28 0.30 0.30 0.29 0.31 0.35 0.32 0.25 0.16 0.15 0.19 0.23 0.28 0.32 0.29 0.29 0.33 0.36 0.37 0.36 0.39 0.47 0.59 0.73 0.82 0.89 1.05 1.26 1.44 1.44 1.49 1.52 1.53 1.52 1.48 1.47 1.25 1.05 0.89 0.75 0.58 0.45 0.42
0.37 0.35 0.32 0.29 0.34 0.35 0.28 0.23 0.18 0.17 0.22 0.25 0.27 0.30 0.29 0.26 0.26 0.32 0.38 0.37 0.34 0.33 0.36 0.46 0.59 0.76 0.94 1.16 1.42 1.42 1.42 1.50 1.60 1.66 1.65 1.68 1.52 1.35 1.15 0.99 0.80 0.59 0.48
0.48 0.43 0.38 0.39 0.42 0.42 0.34 0.25 0.21 0.23 0.29 0.30 0.32 0.30 0.29 0.28 0.25 0.22 0.30 0.36 0.39 0.38 0.34 0.35 0.42 0.62 0.86 0.99 1.21 1.34 1.32 1.31 1.26 1.24 1.32 1.47 1.54 1.50 1.39 1.19 0.97 0.77 0.60
0.58 0.51 0.46 0.47 0.50 0.56 0.52 0.37 0.33 0.35 0.39 0.40 0.45 0.40 0.31 0.26 0.25 0.22 0.27 0.33 0.36 0.37 0.41 0.40 0.40 0.47 0.60 0.79 0.93 1.07 1.17 1.18 1.08 1.00 0.87 0.93 1.13 1.32 1.49 1.39 1.19 0.99 0.83